Regional Weather Roundup
Issued by NWS

Home | Current Version | Previous Version | Text Only | Print | Product List | Glossary Off
Versions: 1 2 3 4 5 6 7 8 9 10 11 12 13 14 15 16 17 18 19 20 21 22 23 24 25 26 27 28 29 30 31 32 33 34 35 36 37 38 39 40 41 42 43 44 45 46 47 48 49 50

000
ASUS43 KMKX 032200
RWRWI

WISCONSIN REGIONAL WEATHER ROUNDUP
NATIONAL WEATHER SERVICE MILWAUKEE/SULLIVAN WI
500 PM CDT MON AUG 03 2015

NOTE: "FAIR" INDICATES FEW OR NO CLOUDS BELOW 12,000 FEET WITH NO
SIGNIFICANT WEATHER AND/OR OBSTRUCTIONS TO VISIBILITY.

WIZ001-002-006>008-014>016-023>028-032300-
NORTHWEST WISCONSIN

CITY           SKY/WX    TMP DP  RH WIND       PRES   REMARKS
SUPERIOR ARPT  CLOUDY    71  55  58 NW15      29.85R
ASHLAND        CLOUDY    71  55  56 NW5       29.84S
HAYWARD        MOSUNNY   71  51  49 W10G21    29.87S
SIREN          CLOUDY    73  50  45 NW9       29.88S
CUMBERLAND     CLOUDY    70  48  46 NW13G18   29.89S
RICE LAKE      PTSUNNY   72  50  44 W12G17    29.89S
CHETEK         CLOUDY    73  53  47 W8G16     29.88S
LADYSMITH      CLOUDY    70  53  55 W10       29.89S
EAU CLAIRE     NOT AVBL
MENOMONIE      PTSUNNY   78  46  31 W16       29.88S
NEW RICHMOND   MOSUNNY   76  48  37 NW12G17   29.90S
OSCEOLA        PTSUNNY   75  50  41 W9        29.91S
$$

WIZ003>005-009-010-017-018-032300-
NORTH CENTRAL WISCONSIN

CITY           SKY/WX    TMP DP  RH WIND       PRES   REMARKS
MANITOWISH WTR PTSUNNY   67  53  61 W8        29.84S
ARBOR VITAE    PTSUNNY   67  55  64 W8        29.85R
WOODRUFF       PTSUNNY   67  55  64 W8        29.85R
RHINELANDER    PTSUNNY   68  52  56 W12G21    29.86R
EAGLE RIVER    CLOUDY    67  50  54 NW7       29.84S
LAND O LAKES   CLOUDY    66  50  55 W8        29.85S
PHILLIPS       CLOUDY    66  54  64 NW12G18   29.87R
TOMAHAWK       CLOUDY    67  53  62 NW7       29.86S
MEDFORD        CLOUDY    68  53  58 NW13G18   29.87S
MERRILL        NOT AVBL
$$

WIZ029-030-035-036-043>047-032300-
CENTRAL WISCONSIN

CITY           SKY/WX    TMP DP  RH WIND       PRES   REMARKS
WAUSAU         MOSUNNY   74  52  46 W16G23    29.83S
MOSINEE        PTSUNNY   72  52  49 NW21G29   29.86S
MARSHFIELD     PTSUNNY   75  52  44 NW16G23   29.86S
STEVENS POINT  CLOUDY    71  52  50 NW8       29.85S
WAUPACA        PTSUNNY   79  50  36 NW15      29.82S
WAUTOMA        NOT AVBL
WISC RAPIDS    PTSUNNY   76  49  38 NW14      29.86S
CAMP DOUGLAS   NOT AVBL
$$

WIZ011>013-019>022-031-037>040-048>050-032300-
NORTHEAST WISCONSIN

CITY           SKY/WX    TMP DP  RH WIND       PRES   REMARKS
ANTIGO         CLOUDY    69  52  54 NW15G21   29.85R
SHAWANO        PTSUNNY   74  53  47 NW6       29.81R
OCONTO         MOSUNNY   76  52  43 W10G17    29.78S
STURGEON BAY   CLOUDY    72  52  49 NW13G18   29.81R
GREEN BAY      PTSUNNY   74  54  49 W13G20    29.80R
MANITOWOC      NOT AVBL
APPLETON       PTSUNNY   73  48  40 NW14G23   29.82S
CLINTONVILLE   CLOUDY    73  50  43 NW9       29.81S
OSHKOSH        PTSUNNY   76  50  40 W14       29.82R
$$

WIZ032>034-041-042-053>061-032300-
SOUTHWEST WISCONSIN

CITY           SKY/WX    TMP DP  RH WIND       PRES   REMARKS
LA CROSSE      SUNNY     81  52  36 NW14      29.87S HX  80
SPARTA         SUNNY     80  44  28 W13G18    29.88S
VIROQUA        SUNNY     76  50  39 NW12G17   29.90S
BOSCOBEL       SUNNY     83  52  34 W13       29.88S HX  82
PRAIRIE DU CHI SUNNY     81  44  27 W9G18     29.88F
PLATTEVILLE    SUNNY     79  51  37 W13G23    29.90S
$$

WIZ056-057-062-063-064-067-068-032300-
SOUTH CENTRAL WISCONSIN

CITY           SKY/WX    TMP DP  RH WIND       PRES   REMARKS
REEDSBURG      MOSUNNY   79  49  34 W14       29.86S
BARABOO/DELLS  MOSUNNY   80  44  28 W15G21    29.86S
LONE ROCK      NOT AVBL
MINERAL POINT  SUNNY     79  45  29 NW9       29.89S
MADISON        MOSUNNY   79  49  34 NW13G18   29.85S
MIDDLETON      SUNNY     81  44  27 W13G20    29.87S
WATERTOWN      SUNNY     79  50  37 W12G20    29.84S
MONROE         SUNNY     79  48  34 W15G23    29.88S
JANESVILLE     NOT AVBL
$$

WIZ051-052-058>065-066-070>072-032300-
SOUTHEAST WISCONSIN

CITY           SKY/WX    TMP DP  RH WIND       PRES   REMARKS
MILWAUKEE      MOSUNNY   81  47  30 W15G22    29.83S HX  80
WAUKESHA       MOSUNNY   79  46  31 W18G29    29.85S
MILWAUKEE/TIMM MOSUNNY   81  43  26 W14G24    29.84R
RACINE         SUNNY     80  48  32 W13G20    29.85S
BURLINGTON     MOSUNNY   78  46  31 W10G20    29.86R
KENOSHA        MOSUNNY   78  53  41 W12G17    29.85S
FOND DU LAC    PTSUNNY   78  51  38 NW13      29.82S
SHEBOYGAN      MOSUNNY   77  52  41 W10G20    29.81S
WEST BEND      MOSUNNY   77  45  31 W13G18    29.83R
JUNEAU         MOSUNNY   76  51  40 W10G25    29.85S
$$

LSZ147-162-032300-
LAKE SUPERIOR

STATION/POSITION TIME  TEMP    WIND        PRES    WAVE
                       AIR SEA DIR/SP/G            HT/PER
                 (UTC) (F)     (DEG/KT/KT) (MB)    (FT/S)
W MID LAKE BUOY  2050   60 56  240/ 12/ 12 1008.3F   2/ 4
DEVILS ISLAND    2100   61     250/ 11/ 14 1009.4F
PORT WING        2140   69     250/  9/ 12 1010.2F
SAXON HARBOR     2140   71     300/ 10     1009.8S
$$

LMZ867-665-643>646-032300-
LAKE MICHIGAN

STATION/POSITION TIME  TEMP    WIND        PRES    WAVE
                       AIR SEA DIR/SP/G            HT/PER
                 (UTC) (F)     (DEG/KT/KT) (MB)    (FT/S)
CHAMBERS ISLAND  2100   71     300/ 11/ 15 1008.1R
S GREEN BAY BUOY 2130   71 71  290/ 10/ 12 1010.0R
N MID LAKE BUOY  2050   66 68  250/ 16/ 21 1007.7R   2/ 3
NORTHPORT PIER   2100   67     360/ 12/ 17 1008.1R
SISTER BAY       2118   71     340/ 17/ 19   N/A
ALGOMA LAKESHORE 2142          330/  6/ 10   N/A
KEWAUNEE LAKESHO 2100   75     310/ 10/ 14 1008.1F
SHEBOYGAN LAKESH 2100   76     300/ 19/ 22 1009.3F
PORT WASHINGTON  2140   80     290/  7/ 16 1010.2R
ATWATER BUOY     2100   68 49  290/ 12/ 17 1011.3R
MILWAUKEE LAKESH 2100   77     300/ 14/ 19   N/A
KENOSHA   LAKESH 2100   79     280/ 14/ 20 1009.8S
$$

TC  - TEMPERATURE IN CELSIUS
VSB - VISIBILITY IN STATUTE MILES
WCI - WIND CHILL INDEX
HX  - HEAT INDEX




USA.gov is the U.S. government's official web portal to all federal, state and local government web resources and services.